CAPE
0 0 0 0 0 0 0 0 0 0 0 0 0 20 25 6 14 5 217 5 23 1019 1327 731 451 411 894 1213 1193 1039 888 749 427 292 416 297 179 186 148 90 93 78 0 0 0 0 0 0 0
0 0 0 0 0 0 0 0 0 0 0 0 0 0 0 8 27 294 188 167 65 966 1269 778 379 290 412 824 892 879 860 776 548 600 580 376 182 110 54 31 63 6 0 0 0 0 0 0 0
0 0 0 0 0 0 0 0 0 0 0 0 0 0 0 0 0 97 231 538 429 1068 1146 921 379 174 112 379 717 828 847 757 632 638 489 167 71 41 16 16 11 0 0 0 0 0 0 0 0
0 0 0 0 0 0 0 0 0 0 0 0 0 0 0 0 0 73 606 574 617 1025 996 1052 495 199 65 89 344 607 798 779 668 623 300 71 52 23 0 0 0 0 0 0 0 0 0 0 0
0 0 0 0 0 0 0 0 0 0 0 0 0 0 0 0 97 464 808 778 508 897 950 1088 629 326 125 48 77 233 499 587 528 277 168 138 50 7 0 0 0 0 0 0 0 0 0 0 0
0 0 0 0 0 0 0 0 0 0 0 0 0 0 0 0 10 558 910 877 578 746 1096 1128 718 449 272 107 46 47 177 316 373 294 195 140 59 4 0 0 0 0 0 0 0 0 0 0 0
0 0 0 0 0 0 0 0 0 0 0 0 0 0 0 0 0 494 1029 1011 655 902 1220 1191 802 538 361 322 146 74 106 241 427 420 268 135 30 1 0 0 0 0 0 0 0 0 0 0 0
0 0 0 0 0 0 0 0 0 0 0 0 0 0 0 0 0 213 769 1050 679 821 1095 1232 1032 647 489 505 332 159 111 222 339 387 324 135 22 0 0 0 0 0 0 0 0 0 0 0 0
0 0 0 0 0 0 0 0 0 0 0 0 0 0 0 0 0 24 420 575 542 612 1015 1214 1088 1038 645 510 558 279 214 187 192 293 344 183 45 54 23 0 0 0 0 0 0 0 0 0 0
0 0 0 0 0 0 0 0 0 0 0 0 0 0 0 0 0 22 344 452 428 357 781 1129 1295 1207 876 601 707 604 542 436 351 296 309 219 236 222 84 38 0 0 0 0 0 0 0 0 0
0 0 0 0 0 0 0 0 0 0 0 0 0 0 0 0 0 211 493 575 572 543 718 1031 1526 1450 984 717 777 855 758 789 816 751 719 561 310 249 166 79 50 36 7 0 0 0 0 0 0
0 0 0 0 0 0 0 0 0 0 0 0 0 0 0 0 0 0 287 592 535 560 736 1169 1577 1501 1289 1135 956 855 791 940 877 836 760 510 338 237 155 156 87 104 26 40 21 0 0 13 39
0 0 0 0 0 0 0 0 0 0 0 0 0 0 0 0 0 0 0 345 685 738 798 1033 1436 1455 1588 1531 1265 1070 988 962 914 969 931 731 394 226 178 192 149 59 32 8 2 0 0 86 137
0 0 0 0 0 0 0 0 0 0 0 0 0 0 0 0 0 0 0 0 4 657 1028 1226 1368 1621 1705 1639 1794 1564 1378 1155 1168 1085 1133 1038 766 528 283 225 164 112 41 6 0 1 49 159 242
0 0 0 0 0 0 0 0 0 0 0 0 0 0 0 0 0 0 0 0 0 1 588 870 1451 1714 1614 1507 1641 1650 1595 1453 1376 1263 1203 1129 1009 966 639 438 283 177 139 42 1 40 157 165 224
0 0 0 0 0 0 0 0 0 0 0 0 0 0 0 0 0 0 0 0 0 0 45 986 1358 1560 1443 1221 1422 1512 1642 1542 1507 1453 1257 1096 1101 978 756 674 470 397 186 98 115 195 253 313 367
0 0 0 0 0 0 0 0 0 0 0 0 0 0 0 0 0 0 0 0 0 0 0 518 1356 1507 1660 1510 1453 1427 1456 1423 1478 1418 1310 1338 1270 1145 882 732 608 457 347 179 130 177 262 399 595
0 0 0 0 0 0 0 0 0 0 0 0 0 0 0 0 0 0 0 0 0 0 0 154 1158 1625 1606 1603 1566 1484 1465 1401 1464 1403 1334 1234 1234 1225 1090 1021 843 567 444 247 150 118 327 452 629
0 0 0 0 0 0 0 0 0 0 0 0 0 0 0 0 0 0 0 0 0 0 0 0 475 1248 1691 1543 1368 1399 1253 1268 1319 1290 1227 1101 904 1035 1037 890 672 449 295 233 212 175 292 618 715
0 0 0 0 0 0 0 0 0 0 0 0 0 0 0 0 0 0 0 0 0 0 0 0 0 421 1364 1721 1635 1652 1740 1682 1555 1429 1286 1103 997 947 676 470 570 521 464 427 484 548 747 900 744
0 0 0 0 0 0 0 0 0 0 0 0 0 0 0 0 0 0 0 0 0 0 0 0 0 0 458 1602 1956 1854 2046 1960 1789 1734 1543 1262 1181 1085 963 573 392 824 1127 959 1077 846 732 615 619
0 0 0 0 0 0 0 0 0 0 0 0 0 0 0 0 0 0 0 0 0 0 0 0 0 0 0 833 1737 1731 1592 1557 1624 1878 1945 1852 1868 1875 1677 957 1014 1302 1418 828 631 381 204 200 152
0 0 0 0 0 0 0 0 0 0 0 0 0 0 0 0 0 0 0 0 0 0 0 0 0 0 0 124 986 1860 1889 1993 2132 2084 2325 2344 2261 2152 2152 2138 1934 1708 940 447 243 168 76 0 0
0 0 0 0 0 0 0 0 0 0 0 0 0 0 0 0 0 0 0 0 0 0 0 0 0 0 0 58 623 1547 2085 2144 1743 1905 2250 2400 2301 2175 2097 2004 2097 1209 777 474 211 121 85 1 9
0 0 0 0 0 0 0 0 0 0 0 0 0 0 0 0 0 0 0 0 0 0 0 0 0 0 0 0 491 1194 2154 2083 1957 1832 1817 1608 1416 1315 1463 1751 1623 1395 1036 743 633 333 221 176 149
0 0 0 0 0 0 0 0 0 0 0 0 0 0 0 0 0 0 0 0 0 0 0 0 0 0 0 0 163 788 1115 1417 1489 1115 626 579 450 481 737 844 1163 1528 1579 1450 1086 585 305 168 205
0 0 0 0 0 0 0 0 0 0 0 0 0 0 0 0 0 0 0 0 0 0 0 0 0 0 0 0 75 166 84 25 17 27 47 39 26 43 85 216 367 472 1196 1752 1689 1105 916 683 377
0 0 0 0 0 0 0 0 1 0 0 0 0 0 0 0 0 0 0 0 0 0 0 0 0 0 10 64 107 100 102 123 95 92 93 152 209 272 360 423 584 698 689 1176 1842 1786 1508 1158 908
0 0 0 0 2 2 2 0 0 0 0 0 0 0 0 0 0 0 0 0 0 0 0 0 0 3 24 102 186 197 194 172 181 249 315 396 451 471 712 920 1043 1163 1270 1221 1414 1487 1430 1354 1222
0 0 0 0 0 3 0 0 0 0 0 0 0 0 0 0 0 0 0 0 0 0 0 0 0 0 0 27 3 9 2 21 271 374 412 585 285 458 789 1036 816 458 591 728 669 597 439 481 447
CIN
0 0 0 0 0 0 0 0 0 0 0 0 0 -222 -194 -215 -137 -27 -437 -35 -480 -344 -263 -350 -383 -368 -249 -187 -180 -170 -161 -170 -234 -260 -210 -227 -288 -272 -271 -321 -296 -278 0 0 0 0 0 0 0
0 0 0 0 0 0 0 0 0 0 0 0 0 0 0 -200 -261 -247 -340 -477 -457 -389 -290 -348 -415 -400 -357 -250 -227 -216 -202 -210 -245 -208 -199 -245 -313 -315 -353 -381 -318 -215 0 0 0 0 0 0 0
0 0 0 0 0 0 0 0 0 0 0 0 0 0 0 0 0 -264 -359 -432 -447 -354 -324 -320 -425 -451 -456 -355 -278 -245 -238 -226 -257 -258 -289 -360 -394 -427 -423 -390 -382 0 0 0 0 0 0 0 0
0 0 0 0 0 0 0 0 0 0 0 0 0 0 0 0 0 -309 -355 -388 -388 -317 -303 -290 -394 -438 -489 -463 -355 -285 -243 -263 -256 -258 -342 -449 -454 -519 0 0 -6 0 0 0 0 0 0 0 0
0 0 0 0 0 0 0 0 0 0 0 0 0 0 0 0 -250 -274 -297 -321 -349 -325 -294 -254 -345 -402 -447 -496 -479 -382 -302 -273 -309 -392 -400 -401 -467 -594 0 0 0 0 0 0 0 0 0 0 0
0 0 0 0 0 0 0 0 0 0 0 0 0 0 0 0 -21 -231 -265 -289 -314 -323 -271 -252 -323 -358 -394 -448 -480 -502 -414 -349 -323 -371 -444 -459 -519 -156 0 0 0 0 0 0 0 0 0 0 0
0 0 0 0 0 0 0 0 0 0 0 0 0 0 0 0 0 -251 -271 -305 -336 -302 -253 -248 -288 -343 -366 -368 -425 -458 -436 -378 -294 -301 -370 -462 -583 -177 0 0 0 0 0 0 0 0 0 0 0
0 0 0 0 0 0 0 0 0 0 0 0 0 0 0 0 0 -279 -295 -303 -325 -310 -254 -238 -248 -292 -315 -298 -347 -408 -438 -379 -339 -290 -332 -448 -584 -9 0 0 0 0 0 0 0 0 0 0 0
0 0 0 0 0 0 0 0 0 0 0 0 0 0 0 0 0 -219 -267 -308 -327 -321 -278 -246 -247 -221 -257 -262 -248 -327 -370 -394 -383 -335 -297 -415 -500 -502 -529 0 0 0 0 0 0 0 0 0 0
0 0 0 0 0 0 0 0 0 0 0 0 0 0 0 0 0 -123 -129 -167 -236 -280 -311 -242 -225 -252 -252 -255 -223 -226 -227 -253 -302 -336 -325 -370 -357 -368 -452 -503 0 0 0 0 0 0 0 0 0
0 0 0 0 0 0 0 0 0 0 0 0 0 0 0 0 0 -143 -107 -130 -160 -238 -305 -281 -203 -218 -275 -262 -214 -183 -195 -190 -194 -213 -220 -246 -340 -380 -417 -470 -500 -515 -486 0 0 0 0 0 0
0 0 0 0 0 0 0 0 0 0 0 0 0 0 0 0 0 0 -73 -96 -149 -208 -260 -274 -225 -230 -247 -230 -232 -213 -207 -180 -202 -217 -243 -302 -344 -391 -425 -396 -465 -469 -521 -469 -502 0 0 -496 -463
0 0 0 0 0 0 0 0 0 0 0 0 0 0 0 0 0 0 0 -109 -135 -146 -220 -275 -260 -270 -235 -200 -211 -230 -221 -197 -191 -188 -225 -261 -333 -375 -378 -392 -416 -501 -532 -553 -335 0 0 -370 -357
0 0 0 0 0 0 0 0 0 0 0 0 0 0 0 0 0 0 0 0 -9 -132 -166 -235 -277 -258 -218 -230 -187 -188 -177 -178 -161 -190 -187 -217 -268 -297 -322 -349 -385 -427 -482 -546 0 -298 -413 -327 -295
0 0 0 0 0 0 0 0 0 0 0 0 0 0 0 0 0 0 0 0 0 -5 -135 -177 -265 -250 -249 -272 -238 -204 -191 -166 -154 -167 -177 -199 -231 -223 -273 -284 -338 -369 -384 -458 -185 -434 -372 -335 -294
0 0 0 0 0 0 0 0 0 0 0 0 0 0 0 0 0 0 0 0 0 0 -150 -186 -255 -263 -280 -298 -267 -237 -205 -182 -152 -143 -176 -194 -201 -192 -205 -228 -285 -332 -395 -384 -387 -312 -278 -258 -240
0 0 0 0 0 0 0 0 0 0 0 0 0 0 0 0 0 0 0 0 0 0 0 -174 -207 -231 -266 -301 -278 -272 -254 -235 -187 -172 -199 -172 -188 -203 -211 -178 -234 -331 -332 -370 -356 -315 -258 -199 -125
0 0 0 0 0 0 0 0 0 0 0 0 0 0 0 0 0 0 0 0 0 0 0 -306 -206 -207 -251 -232 -208 -215 -263 -265 -219 -212 -205 -192 -171 -179 -172 -213 -237 -273 -275 -313 -304 -311 -216 -152 -129
0 0 0 0 0 0 0 0 0 0 0 0 0 0 0 0 0 0 0 0 0 0 0 0 -228 -200 -207 -214 -219 -229 -248 -302 -274 -268 -257 -227 -228 -199 -205 -162 -194 -217 -233 -282 -288 -218 -179 -96 -83
0 0 0 0 0 0 0 0 0 0 0 0 0 0 0 0 0 0 0 0 0 0 0 0 0 -268 -207 -179 -200 -174 -176 -189 -222 -218 -229 -223 -214 -209 -182 -182 -133 -156 -160 -201 -197 -168 -127 -41 -79
0 0 0 0 0 0 0 0 0 0 0 0 0 0 0 0 0 0 0 0 0 0 0 0 0 0 -233 -177 -134 -143 -119 -125 -176 -188 -201 -211 -204 -170 -146 -190 -222 -100 -70 -107 -47 -82 -43 -34 -88
0 0 0 0 0 0 0 0 0 0 0 0 0 0 0 0 0 0 0 0 0 0 0 0 0 0 0 -260 -150 -151 -125 -118 -156 -142 -148 -165 -132 -92 -81 -125 -128 -53 -81 -118 -107 -110 -154 -188 -137
0 0 0 0 0 0 0 0 0 0 0 0 0 0 0 0 0 0 0 0 0 0 0 0 0 0 0 -335 -247 -160 -132 -109 -130 -153 -129 -118 -111 -79 -56 -44 -41 -53 -114 -135 -129 -138 -170 -7 0
0 0 0 0 0 0 0 0 0 0 0 0 0 0 0 0 0 0 0 0 0 0 0 0 0 0 0 -339 -261 -182 -120 -98 -155 -156 -106 -90 -81 -68 -49 -50 -25 -89 -126 -150 -192 -219 -205 -69 -198
0 0 0 0 0 0 0 0 0 0 0 0 0 0 0 0 0 0 0 0 0 0 0 0 0 0 0 -10 -283 -230 -127 -112 -104 -113 -115 -115 -109 -125 -121 -73 -63 -81 -105 -109 -122 -164 -166 -189 -125
0 0 0 0 0 0 0 0 0 0 0 0 0 0 0 0 0 0 0 0 0 0 0 0 0 0 0 0 -351 -282 -252 -165 -141 -169 -175 -174 -161 -149 -156 -150 -111 -72 -50 -49 -80 -125 -167 -176 -77
0 0 0 0 0 0 0 0 0 0 0 0 0 0 0 0 0 0 0 0 0 0 0 0 0 0 0 -31 -386 -322 -330 -330 -292 -313 -326 -299 -300 -264 -239 -212 -183 -158 -60 -11 -8 -35 -46 -72 -123
0 0 0 0 0 -2 0 -4 -2 0 0 0 0 0 0 0 0 0 0 0 0 0 0 0 0 0 -312 -308 -274 -252 -233 -242 -224 -255 -272 -275 -261 -237 -201 -183 -134 -86 -77 -36 -1 0 -10 -23 -29
0 0 0 0 -2 0 -1 0 0 0 0 0 0 0 0 0 0 0 0 0 0 0 0 0 0 -72 -180 -160 -129 -151 -170 -197 -210 -173 -168 -147 -139 -163 -100 -33 -12 -11 -13 -14 -3 -1 -4 -2 -1
0 0 0 0 -1 0 -1 0 0 0 0 0 0 0 0 0 0 0 0 0 0 0 0 0 0 0 0 -155 -214 -228 -302 -208 -153 -125 -116 -92 -83 -81 -32 -14 -12 -2 -3 -7 -14 -21 -30 -29 -27
Wind_Speed
26 25 23 19 19 16 15 12 16 18 16 19 18 14 13 16 14 16 13 9 8 14 15 18 20 22 21 22 21 23 24 24 26 26 25 26 26 26 26 26 26 26 25 24 23 23 23 23 23
25 24 20 20 20 18 16 15 16 18 20 21 14 15 15 13 13 12 9 5 9 12 12 15 18 18 18 19 21 21 23 23 23 23 23 24 24 24 24 24 23 24 23 23 22 22 22 23 22
22 22 22 21 20 20 16 14 17 20 19 18 16 16 16 15 14 12 10 5 7 9 10 10 13 15 15 16 18 20 21 22 22 23 22 23 23 22 22 21 21 21 22 22 22 21 21 21 21
22 21 21 25 24 22 18 17 19 20 17 17 18 16 15 15 14 13 5 4 6 7 7 8 10 10 12 13 14 16 18 21 22 20 20 22 23 22 21 20 19 19 20 21 20 20 19 20 20
20 20 28 26 27 24 22 22 22 22 20 19 20 19 17 13 13 9 5 4 3 5 7 8 7 7 8 9 11 12 14 18 19 19 19 18 18 20 19 18 18 18 18 19 19 18 17 18 18
19 19 30 33 32 27 25 25 26 24 23 24 23 24 17 14 13 9 6 5 2 4 3 5 6 6 7 7 8 9 11 11 14 16 18 19 19 18 17 16 15 15 15 15 16 15 15 16 17
20 20 30 33 32 32 28 22 24 27 27 23 24 26 20 18 16 12 8 5 2 1 2 2 4 5 6 5 7 7 9 9 10 13 13 14 17 16 16 14 13 12 11 11 12 12 13 14 14
20 23 22 25 29 32 26 27 24 27 28 26 25 24 26 24 19 14 12 9 5 3 3 3 3 4 5 5 5 7 8 9 10 10 11 10 11 12 13 12 11 10 9 9 9 9 10 11 12
17 24 27 29 27 29 22 26 28 27 32 28 27 27 33 27 18 14 14 12 10 10 9 7 6 6 6 6 6 6 7 7 8 8 7 5 4 5 6 8 8 7 6 6 6 7 8 9 10
18 24 26 24 25 29 29 31 33 32 34 30 30 29 27 24 22 19 18 15 14 12 12 11 9 8 8 9 9 8 8 8 8 7 7 6 5 4 2 1 3 3 3 4 5 6 7 8 9
18 25 22 23 22 24 30 31 28 31 36 30 31 32 31 28 23 22 19 20 17 15 15 14 13 12 12 12 13 13 12 12 11 11 10 10 9 9 8 6 4 5 3 5 5 6 7 8 9
21 21 21 23 23 25 29 29 29 29 32 32 32 32 32 32 32 28 23 21 21 19 18 17 15 15 15 15 15 15 16 16 16 15 15 16 17 15 12 13 10 10 10 10 10 10 10 9 9
21 22 21 23 26 26 25 28 28 28 29 28 29 27 29 28 28 28 25 23 21 19 19 17 15 14 14 14 13 14 19 19 18 19 21 21 22 24 22 19 17 16 15 15 15 15 16 16 14
18 21 24 25 25 25 27 29 23 21 26 30 29 28 26 25 26 28 25 25 23 21 17 16 18 14 15 17 18 18 21 21 21 24 24 26 27 26 28 29 24 22 19 18 20 20 19 20 20
19 26 27 28 29 27 25 32 28 27 24 27 28 29 29 27 27 25 25 28 27 22 21 18 17 18 16 18 19 19 20 20 24 24 25 30 31 32 29 30 32 26 24 24 23 22 22 23 24
23 25 28 23 24 23 22 36 29 23 21 25 26 26 26 28 28 30 29 28 27 27 26 23 20 19 18 19 18 19 20 21 22 23 25 30 31 34 34 35 36 31 27 26 27 25 26 25 24
22 26 25 25 23 22 23 28 28 27 28 29 28 28 29 30 31 30 29 30 32 30 27 24 21 20 19 20 20 21 22 22 22 25 28 30 33 29 37 36 37 34 32 29 29 30 30 29 29
18 21 22 25 19 28 33 37 32 32 32 31 32 31 30 31 33 30 28 27 29 30 29 27 24 23 20 21 24 26 25 26 25 26 28 29 31 31 32 34 37 35 35 33 31 32 31 33 31
22 24 27 29 27 26 30 31 32 32 32 32 35 33 32 32 31 32 32 29 27 28 28 27 27 26 25 25 25 27 30 28 29 29 30 32 32 33 31 32 32 31 36 34 33 31 30 32 30
17 23 28 28 24 23 32 35 35 29 29 30 31 33 33 34 34 34 34 34 33 33 30 28 28 29 28 27 26 28 30 32 31 30 30 31 32 30 30 31 31 31 28 26 29 31 30 28 26
18 21 24 29 32 27 32 36 31 29 28 29 30 31 33 34 37 37 38 36 36 36 34 32 30 29 29 29 28 29 31 32 31 32 29 27 26 27 26 26 29 28 27 28 27 21 28 27 24
23 19 24 29 32 38 26 45 35 31 27 25 27 28 32 34 33 35 38 39 39 39 37 35 32 30 29 29 29 30 31 33 34 32 30 27 24 25 27 28 26 26 25 26 23 27 29 32 35
24 21 25 28 38 33 28 33 28 25 30 31 31 29 30 31 32 35 37 40 41 40 40 39 37 35 33 30 30 31 31 30 31 30 30 28 26 26 26 26 25 24 25 24 27 32 36 41 40
25 29 31 28 28 32 32 29 35 25 28 28 26 28 28 32 32 34 36 38 39 39 39 40 41 42 38 35 34 33 33 31 30 28 28 28 28 26 25 24 24 25 26 26 27 29 29 26 27
26 28 35 35 30 33 27 28 26 29 28 28 27 28 30 33 34 37 39 40 40 40 41 42 40 43 39 37 37 35 34 31 29 27 27 27 28 28 26 26 29 30 31 31 31 31 29 29 30
23 22 28 36 38 42 35 30 30 29 27 21 23 26 31 34 37 40 41 42 42 41 41 42 42 43 39 38 35 31 30 30 28 25 24 26 26 27 25 26 28 30 31 31 30 28 25 23 22
22 23 24 32 34 39 33 30 32 24 23 21 27 31 35 38 43 47 48 46 44 41 40 40 39 39 38 35 29 27 25 24 23 20 18 19 21 23 25 28 30 29 29 29 28 27 24 20 21
23 20 26 25 36 39 30 35 34 27 22 27 31 37 43 46 45 44 45 44 43 38 37 35 33 33 32 27 24 23 21 21 19 18 18 18 19 20 22 25 27 31 31 29 27 26 25 26 25
25 25 24 27 28 35 42 32 23 24 26 32 36 40 40 39 39 40 42 39 35 32 32 31 31 30 26 22 22 23 22 20 19 18 17 15 16 17 20 21 23 25 25 26 25 25 21 23 23
26 28 26 28 29 26 32 35 25 25 29 32 37 36 34 33 35 37 35 34 32 31 30 32 31 29 26 28 26 26 24 23 23 20 19 18 17 17 17 17 18 19 20 21 24 24 23 22 22
Wind_Direction
292 293 298 291 281 288 287 300 295 300 308 312 306 321 323 318 308 303 330 95 70 110 112 119 122 123 116 112 109 114 118 119 120 119 116 116 117 116 115 112 110 108 103 93 92 86 85 83 80
295 297 298 279 276 275 282 286 299 295 296 302 317 311 317 322 326 337 9 65 92 115 116 120 125 122 116 110 113 115 120 122 121 118 116 116 115 114 113 109 105 105 99 95 92 90 88 88 85
297 297 282 276 272 271 281 283 293 293 298 305 305 312 312 313 322 329 333 49 88 118 122 120 125 123 119 115 114 118 122 126 124 123 120 119 116 114 111 108 105 100 100 97 94 89 87 83 84
288 289 283 271 267 271 279 281 290 294 302 315 309 307 311 317 317 319 15 43 83 119 124 127 129 126 122 120 119 121 124 128 128 125 121 122 123 118 114 110 104 99 101 100 96 86 81 80 84
286 285 270 271 266 269 272 278 284 285 291 300 310 304 303 317 327 351 13 15 75 128 124 131 138 136 129 125 125 126 127 131 132 130 126 123 121 121 118 113 108 106 105 101 96 87 79 76 78
283 284 266 265 264 268 274 278 279 282 288 289 292 293 299 301 312 329 348 354 45 125 139 137 143 145 142 138 134 135 137 137 136 135 132 131 129 126 120 113 108 105 100 97 94 85 77 74 76
279 278 270 268 270 270 274 285 281 278 284 284 292 280 293 292 297 301 311 335 14 125 142 172 167 162 160 157 150 147 148 150 146 141 138 134 133 130 126 118 110 102 93 87 80 76 71 71 70
278 275 279 277 273 273 277 277 283 285 281 287 290 279 279 293 301 292 292 296 293 270 250 236 225 210 204 181 176 164 159 160 157 152 148 143 137 133 131 124 116 107 95 83 72 61 60 64 65
285 275 275 273 274 274 278 279 283 288 281 285 286 284 285 291 297 288 283 286 281 273 268 257 249 251 238 230 218 201 188 182 178 174 175 170 164 150 139 131 121 112 91 72 53 48 50 50 55
281 278 279 282 280 279 279 280 281 281 279 281 284 286 297 296 288 280 270 280 277 271 266 265 260 248 246 253 243 230 230 223 215 207 207 203 239 252 234 191 134 111 73 31 17 19 24 31 30
285 279 285 288 288 288 284 284 286 282 277 282 283 289 289 289 291 282 271 278 281 281 273 266 265 257 255 256 255 253 249 244 241 236 242 247 253 263 268 279 285 298 312 335 354 357 4 2 4
286 290 291 293 290 289 285 287 284 282 281 282 284 287 288 284 280 280 278 277 279 278 275 271 265 261 258 259 256 258 256 252 250 246 248 254 259 262 265 274 279 286 296 305 314 326 336 348 352
288 293 295 295 293 291 293 289 289 287 286 287 286 289 289 287 281 281 280 282 283 280 277 270 266 259 257 249 251 257 259 257 256 253 254 256 259 260 263 269 275 279 285 292 300 308 312 317 327
299 297 295 297 297 295 292 290 295 296 294 287 288 286 290 291 287 283 279 281 284 281 276 276 271 262 258 252 260 265 262 262 259 258 258 257 261 263 262 264 270 274 279 284 290 296 301 301 306
303 293 295 293 293 294 297 287 289 293 298 294 292 288 287 288 289 287 283 282 281 279 283 279 271 268 259 256 260 262 263 262 263 263 261 259 259 262 265 266 265 272 277 279 284 288 293 294 296
299 299 293 303 302 302 294 283 296 302 301 299 298 296 294 292 292 288 284 283 282 279 280 280 271 266 263 262 262 262 265 265 266 266 265 262 260 261 263 264 264 268 274 278 279 284 286 290 294
299 294 297 302 311 302 296 292 300 298 298 297 300 299 296 293 293 297 288 282 282 281 277 273 268 264 258 261 262 264 268 267 268 269 268 267 264 268 261 263 265 266 271 273 276 278 281 284 288
305 300 301 299 311 300 288 283 295 293 296 295 297 298 297 295 295 299 298 290 287 283 279 271 267 264 261 266 268 270 269 268 269 270 272 272 268 268 268 266 265 266 268 268 272 275 279 281 284
301 300 298 297 303 306 300 299 298 298 297 294 294 298 297 295 296 295 295 296 293 289 283 274 268 263 264 263 264 267 267 269 269 271 273 273 271 268 268 269 271 269 269 268 269 271 279 280 284
308 305 302 303 311 313 303 299 298 305 304 302 301 299 298 296 296 296 297 295 292 289 288 283 274 270 265 262 264 268 270 271 272 274 275 274 270 268 267 267 272 272 273 273 270 272 272 277 285
307 307 309 306 306 311 306 301 303 304 304 304 302 300 298 297 294 293 294 294 292 289 287 285 282 275 268 264 267 269 273 274 272 272 273 272 270 266 262 267 268 272 270 269 267 274 271 273 286
304 312 311 308 307 298 314 292 303 306 306 307 306 304 301 301 300 298 295 292 291 288 288 285 282 279 274 268 265 263 265 268 270 271 270 271 269 266 265 270 272 265 272 269 259 262 271 277 277
307 316 311 309 301 304 307 305 313 312 308 307 307 306 306 307 307 303 301 298 294 291 286 284 283 280 276 271 264 264 264 268 272 271 269 268 270 268 269 269 268 267 269 271 269 270 276 272 275
311 308 308 310 308 300 304 302 306 314 318 317 314 312 312 310 310 311 309 305 300 295 292 287 282 279 277 273 268 264 264 265 268 265 266 269 270 271 269 268 267 268 272 272 275 278 281 281 274
303 305 303 302 302 303 315 308 305 315 316 317 317 316 314 313 310 308 309 307 304 301 294 290 287 281 279 275 268 264 262 261 262 263 264 267 270 270 272 270 272 274 274 275 277 280 280 278 275
302 300 298 300 300 299 308 308 312 320 322 326 329 326 322 317 312 308 308 307 305 303 301 296 288 284 283 277 271 264 259 260 261 261 264 269 271 272 273 274 276 276 277 277 278 278 277 274 265
308 300 306 301 303 302 306 309 315 319 321 325 325 324 321 319 314 309 305 304 304 303 302 302 295 288 284 278 270 260 256 256 258 258 260 269 274 277 278 278 278 279 278 276 275 274 274 272 271
302 311 304 306 304 303 310 311 312 321 327 326 324 320 319 317 316 316 314 310 307 305 306 303 303 295 288 276 265 256 254 254 257 260 264 269 275 279 283 284 284 282 279 276 274 275 274 275 276
297 298 302 305 303 304 306 312 327 325 325 323 322 321 321 321 322 323 322 321 318 313 312 308 303 299 288 276 264 259 259 256 259 261 266 270 279 282 286 287 288 285 281 278 275 275 278 276 276
301 298 298 294 303 303 306 305 317 316 322 325 323 324 325 326 327 329 329 330 325 321 312 304 296 289 291 275 269 266 262 263 262 263 269 275 279 287 288 289 289 288 285 282 276 274 275 275 275